jalan.net alexa rank chart, jalan.net alexa rank daily changes

jalan.net alexa rank chart, jalan.net alexa rank daily changes

jalan.net
Actual rank:
2 083

RANK HISTORY

Date Rank Diff
2019/03/21 2 083 -570
2019/03/20 2 653 -362
2019/03/19 3 015 +141
2019/03/18 2 874 +322
2019/03/17 2 552 +808
2019/03/16 1 744 -383
2019/03/15 2 127 -1 349
2019/03/14 3 476 +1 307
2019/03/13 2 169 -310
2019/03/12 2 479 +632
2019/03/11 1 847 -66
2019/03/10 1 913 -484
2019/03/09 2 397 -70
2019/03/08 2 467 +236
2019/03/07 2 231 +235
2019/03/06 1 996 -137
2019/03/05 2 133 +186
2019/03/04 1 947 +92
2019/03/03 1 855 -623
2019/03/02 2 478 +620
2019/03/01 1 858 +394
2019/02/28 1 464 -402
2019/02/27 1 866 -233
2019/02/26 2 099 +349
2019/02/25 1 750 -507
2019/02/24 2 257 +131
2019/02/22 2 126 +50
2019/02/21 2 076 -330
2019/02/20 2 406 +179
2019/02/19 2 227 -654
2019/02/18 2 881 +411
2019/02/17 2 470 +459
2019/02/16 2 011 -246
2019/02/15 2 257 +430
2019/02/14 1 827 -351
2019/02/13 2 178 -504
2019/02/12 2 682 +925
2019/02/11 1 757 -919
2019/02/10 2 676 +901
2019/02/09 1 775 -197
2019/02/08 1 972 +512
2019/02/07 1 460 -594
2019/02/06 2 054 -656
2019/02/05 2 710 +635
2019/02/04 2 075 +401
2019/02/03 1 674 -397
2019/02/02 2 071 +172
2019/02/01 1 899 -171
2019/01/31 2 070 -118
2019/01/30 2 188 +342
2019/01/29 1 846 -1 125
2019/01/28 2 971 +875
2019/01/27 2 096 -175
2019/01/26 2 271 +286
2019/01/25 1 985 -191
2019/01/24 2 176 -124
2019/01/23 2 300 -70
2019/01/22 2 370 +146
2019/01/21 2 224 +56
2019/01/20 2 168

WIDGET FOR YOUR SITE

DOMAINS WITH THE NEAREST RANK

Domain Rank
alwatanvoice.com 2 078
colorlib.com 2 079
amap.com 2 080
tawk.to 2 081
deref-web-02.de 2 082
jalan.net 2 083
uscis.gov 2 084
sport.es 2 085
hibapress.com 2 086
variety.com 2 087
rbcroyalbank.com 2 088

DOMAINS WITH THE NEAREST RANK BY TLD .net

Domain Rank
eurogamer.net 1 811
videohive.net 1 873
windows.net 1 946
tebyan.net 1 987
paheal.net 2 003
jalan.net 2 083
vkuseraudio.net 2 104
facebookwiki.net 2 112
pornolab.net 2 128
template.net 2 134
att.net 2 162